{"data":{"norad_id":53609,"intl_designator":"2022-104X","name":"STARLINK-4660","alt_names":[],"object_type":"PAYLOAD","status":"ACTIVE","operator":null,"country":"US","launch_date":"2022-08-28","launch_site_code":"AFETR","launch_vehicle":null,"mission":null,"orbit_class":"UNKNOWN","rcs_meters":null,"size_class":null,"mass_kg":null,"dimensions":null,"purposes":["comms"],"wikipedia_slug":null,"has_3d_model":false,"image_url":null,"decayed_at":null,"tle_current":{"epoch":"2026-05-25T00:38:43.501632Z","epoch_age_seconds":72796,"freshness":"FRESH","line1":"1 53609U 22104X   26145.02689238  .00000714  00000+0  62932-4 0  9995","line2":"2 53609  53.2145 256.1255 0001145  87.2958 272.8165 15.08835471207216","mean_motion":15.08835471,"eccentricity":0.0001145,"inclination_deg":53.2145,"raan_deg":256.1255,"arg_perigee_deg":87.2958,"mean_anomaly_deg":272.8165,"bstar":6.2932e-5,"rev_number":20721,"period_min":95.437841148155,"perigee_km":538.96513345027,"apogee_km":540.54933122948,"semimajor_km":6917.8942323399,"source":"CELESTRAK","updated_at":"2026-05-25T13:38:17.477656Z"}}}